Simultaneous Nadir Overpasses (SNOs) Predictions

Prediction of SNOs between GOES-16 and AQUA Satellite Orbit:

Table of predicted SNOs for the next 14.0 days since TLE Epoch: 4/2/2022
Index Date Time (GOES-16) GOES-16 Lat,Lon AQUA Lat,Lon Distance(km) Time Diff (sec)
1 04/03/2022 18:36:43 0.05, -75.22 0.08, -75.19 4.08 80
2 04/05/2022 18:27:02 0.05, -75.23 0.72, -72.19 345.89 80
3 04/06/2022 06:48:14 -0.05, -75.23 0.42, -77.32 238.73 80
4 04/08/2022 06:33:13 -0.05, -75.24 -0.26, -74.33 104.42 80
5 04/08/2022 18:57:13 0.04, -75.25 -0.89, -79.50 483.85 80
6 04/10/2022 06:20:51 -0.04, -75.26 -0.90, -71.32 448.25 80
7 04/10/2022 18:44:51 0.03, -75.26 -0.24, -76.49 139.76 80
8 04/12/2022 18:29:50 0.03, -75.29 0.44, -73.49 205.20 80
9 04/13/2022 06:53:41 -0.03, -75.29 0.68, -78.63 378.52 80
10 04/15/2022 06:41:18 -0.02, -75.33 0.02, -75.62 32.75 80
